(337) Devosa
ephemeris date magn radius delta ra dec elong phase
Today20 Jun 202613.92.236 AU2.658 AU09h44m+14°49'55.0°21.9°
Opposition1 Jun 202712.62.673 AU1.674 AU16h28m-34°07'167.8°4.6°
(337) Devosa - 2026-06-20
astro.vanbuitenen.nl


 
-1 year
-1 month
-1 day
Now
+1 day
+1 month
+1 year

The interactive orbit chart above shows the body's path through the solar system and its position at the given date. Green and blue lines are shown perpendicular to the ecliptic plane: Green if the path is above the ecliptic plane, blue if it is below. (Left-click and drag to rotate the view; Right-click and drag to move the view; Use scroll wheel to zoom in our out.)

The orbital elements of Devosa are:

            e (Eccentricity)                : 0.1371743
            a (Semimajor axis)              : 2.3831345
            i (Inclination)                 : 7.86118
            Ω (Longitude of ascending node) : 355.29459
            ω (Argument of perihelion)      : 99.35246
            M (Mean anomaly)                : 53.26053
            Epoch                           : 2026 Jun 09

            L (Longitude of perihelion)     : 274.73419
            B (Latitude of perihelion)      : 7.75604
            P (Orbital period in years)     : 3.68            
        

The light curve chart below shows the estimated development of the minor planet's magnitude.


The all-sky chart below shows the path of the minor planet over the same period as the light curve. The current position is marked yellow.





The following chart shows the path of the minor planet in the next few days. The field of view is optimized for (~10x50) binoculars and finderscopes.




Ephemerides:
Date       Time       RA (2000)    DEC (2000)    delta   radius  elong  phase   PA    magn
2026-06-20 00:00 UT   09 44 20.6   +14 49 47     2.658    2.236   55.0   21.9   108   13.9 
2026-06-20 09:56 UT   09 45 03.2   +14 45 10     2.662    2.236   54.8   21.8   109   13.9 
2026-06-21 00:00 UT   09 46 03.7   +14 38 37     2.668    2.237   54.5   21.7   109   13.9 
2026-06-22 00:00 UT   09 47 46.9   +14 27 25     2.679    2.239   54.0   21.6   109   13.9 
2026-06-23 00:00 UT   09 49 30.1   +14 16 10     2.690    2.240   53.5   21.4   109   13.9 
2026-06-24 00:00 UT   09 51 13.4   +14 04 52     2.701    2.242   53.0   21.2   109   13.9 
2026-06-25 00:00 UT   09 52 56.7   +13 53 32     2.711    2.243   52.5   21.1   109   13.9 
2026-06-26 00:00 UT   09 54 40.0   +13 42 10     2.722    2.245   52.0   20.9   109   13.9 
2026-06-27 00:00 UT   09 56 23.4   +13 30 45     2.733    2.246   51.5   20.8   109   13.9 
2026-06-28 00:00 UT   09 58 06.8   +13 19 18     2.743    2.248   51.0   20.6   109   13.9 
2026-06-29 00:00 UT   09 59 50.2   +13 07 48     2.754    2.249   50.5   20.4   109   13.9 
2026-06-30 00:00 UT   10 01 33.6   +12 56 17     2.764    2.251   50.1   20.3   110   13.9 
2026-07-01 00:00 UT   10 03 17.1   +12 44 43     2.774    2.252   49.6   20.1   110   13.9 
2026-07-02 00:00 UT   10 05 00.5   +12 33 06     2.785    2.254   49.1   19.9   110   13.9 
2026-07-03 00:00 UT   10 06 44.0   +12 21 28     2.795    2.255   48.6   19.8   110   13.9 
2026-07-04 00:00 UT   10 08 27.5   +12 09 47     2.805    2.256   48.1   19.6   110   14.0 
2026-07-05 00:00 UT   10 10 11.0   +11 58 04     2.815    2.258   47.6   19.4   110   14.0 
2026-07-06 00:00 UT   10 11 54.5   +11 46 18     2.825    2.259   47.1   19.2   110   14.0 
2026-07-07 00:00 UT   10 13 38.0   +11 34 31     2.835    2.261   46.6   19.1   110   14.0 
2026-07-08 00:00 UT   10 15 21.6   +11 22 42     2.845    2.262   46.1   18.9   110   14.0 


    Terminology:
            
    delta:  distance between minor planet and earth in AU
    radius: distance between minor planet and sun in AU
    magn:   magnitude (brightness) estimate    
    ra:     right ascension in hours (24h = 360deg)
    dec:    declination in degrees
    elong:  elongation in degrees (angle sun-earth-minor planet)    
    phase:  phase angle in degrees (angle sun-minor planet-earth)        
    AU:     Astronomical Unit (mean distance between earth and sun: 149597870.7 km
    

Orbital elements provided by the MPC (Minor Planet Center).
Calculations by a modified version of AAPlus, a C# implementation of the AA+ project by PJ Naughter from the algorithms presented in the book "Astronomical Algorithms" by Jean Meeus.
NGC2000 dso catalog and star labels from VizieR as provided by the Strasbourg astronomical Data Center.
Tycho2 catalog from the ESO archive.